Weather History for Morris, IL

Change the Weather History Date:

Friday, January 11, 2013

  Actual Average (KLOT) Record (KLOT)
Temperature  
Mean Temperature 48 °F 23 °F  
Max Temperature 52 °F 30 °F 55 °F (2012)
Min Temperature 45 °F 16 °F -6 °F (1997)
Degree Days  
Heating Degree Days 16 42  
Month to date heating degree days 459  
Since 1 July heating degree days 2845  
Cooling Degree Days 0 0  
Month to date cooling degree days 0  
Year to date cooling degree days 0  
Moisture  
Dew Point 49 °F    
Average Humidity 98    
Maximum Humidity 100    
Minimum Humidity 93    
Precipitation  
Precipitation 0.38 in 0.07 in 0.49 in (2013)
Month to date precipitation 0.79  
Year to date precipitation 0.79  
Snow  
Snow 0.00 in 0.40 in 4.30 in (1996)
Month to date snowfall 3.9  
Since 1 July snowfall 14.1  
Snow Depth -    
Sea Level Pressure  
Sea Level Pressure 29.75 in    
Wind  
Wind Speed 11 mph (South)    
Max Wind Speed 18 mph    
Max Gust Speed 26 mph    
Visibility 7 miles    
Events Fog , Rain    
T = Trace of Precipitation, MM = Missing Value Source: NWS Daily Summary

Daily Weather History Graph

Daily Weather History Graph

Search for Another Location

Airport:

Trip Planner

Search our weather history database for the weather conditions in past years. The results will help you decide how hot, cold, wet, or windy it might be!

Date:

Astronomy

Jan. 11, 2013 Rise Set
Actual Time 7:18 AM CST 4:44 PM CST
Civil Twilight 6:48 AM CST 5:15 PM CST
Nautical Twilight 6:13 AM CST 5:49 PM CST
Astronomical Twilight 5:40 AM CST 6:23 PM CST
Moon 6:51 AM CST (1/11) 5:03 PM CST (1/11)
Length of Visible Light 10h 27m
Length of Day
9h 25m
Waning Crescent, 0% of the Moon is Illuminated
Jan 11
Waning Crescent
Jan 11
New
Jan 18
First Quarter
Jan 26
Full
Feb 3
Last Quarter

Hourly Weather History & Observations

Time (CST) Temp. Windchill Dew Point Humidity Pressure Visibility Wind Dir Wind Speed Gust Speed Precip Events Conditions
12:15 AM 45.0 °F 41.2 °F 45.0 °F 100% 29.84 in 3.0 mi SE 6.9 mph - 0.01 in Rain Rain
12:35 AM 45.7 °F 41.0 °F 45.7 °F 100% 29.82 in 2.5 mi SE 9.2 mph - 0.02 in Rain Light Rain
12:55 AM 47.3 °F - 47.3 °F 100% 29.81 in 2.5 mi SE 8.1 mph - 0.04 in Rain Rain
1:15 AM 48.7 °F - 48.7 °F 100% 29.78 in 2.5 mi SE 13.8 mph - 0.07 in Rain Heavy Rain
1:35 AM 48.4 °F - 48.4 °F 100% 29.78 in 2.5 mi SE 11.5 mph 16.1 mph 0.10 in Rain Light Rain
1:55 AM 50.0 °F - 50.0 °F 100% 29.80 in 4.0 mi South 13.8 mph 26.5 mph 0.16 in Rain Heavy Rain
2:15 AM 49.1 °F - 49.1 °F 100% 29.79 in 4.0 mi South 11.5 mph 21.9 mph 0.03 in Rain Rain
2:35 AM 49.1 °F - 49.1 °F 100% 29.79 in 5.0 mi South 10.4 mph - 0.04 in Rain Light Rain
2:55 AM 49.1 °F - 49.1 °F 100% 29.77 in 4.0 mi South 11.5 mph - 0.09 in Rain Light Rain
3:15 AM 48.4 °F - 48.4 °F 100% 29.75 in 3.0 mi SSE 10.4 mph - N/A Rain Light Rain
3:35 AM 48.0 °F - 48.0 °F 100% 29.70 in 2.5 mi ESE 5.8 mph - 0.01 in Rain Light Rain
3:55 AM 49.1 °F - 49.1 °F 100% 29.67 in 2.5 mi SE 16.1 mph 23.0 mph 0.03 in Rain Light Rain
4:15 AM 49.5 °F - 49.5 °F 100% 29.69 in 3.0 mi SSE 10.4 mph - N/A   Mist
4:35 AM 50.4 °F - 50.4 °F 100% 29.69 in 2.0 mi South 11.5 mph - N/A   Mist
4:55 AM 50.4 °F - 50.4 °F 100% 29.70 in 0.8 mi SSW 8.1 mph - N/A   Mist
5:15 AM 50.0 °F - 50.0 °F 100% 29.69 in 0.2 mi SSW 5.8 mph - N/A Fog Fog
5:35 AM 49.3 °F - 49.3 °F 100% 29.68 in 0.2 mi South 4.6 mph - N/A Fog Fog
5:55 AM 49.6 °F - 49.6 °F 100% 29.69 in 0.2 mi SSW 6.9 mph - N/A Fog Fog
6:15 AM 49.1 °F - 49.1 °F 100% 29.70 in 0.2 mi SW 5.8 mph - 0.01 in Rain Light Rain
6:35 AM 50.0 °F - 50.0 °F 100% 29.71 in 0.2 mi SW 8.1 mph - 0.03 in Rain Rain
6:55 AM 51.3 °F - 51.3 °F 100% 29.71 in 5.0 mi SW 10.4 mph - 0.06 in Rain Light Rain
7:15 AM 51.1 °F - 51.1 °F 100% 29.73 in 10.0 mi WSW 17.3 mph 24.2 mph N/A   Unknown
7:35 AM 50.5 °F - 50.5 °F 100% 29.74 in 10.0 mi WSW 16.1 mph - N/A   Unknown
7:55 AM 50.0 °F - 50.0 °F 100% 29.75 in 10.0 mi WSW 12.7 mph - N/A   Unknown
8:15 AM 49.5 °F - 49.5 °F 100% 29.76 in 10.0 mi WSW 16.1 mph 19.6 mph N/A   Unknown
8:35 AM 48.4 °F - 48.4 °F 100% 29.78 in 7.0 mi SW 15.0 mph - N/A   Unknown
8:55 AM 47.5 °F - 47.5 °F 100% 29.78 in 4.0 mi WSW 17.3 mph - N/A   Mist
9:15 AM 47.5 °F - 47.5 °F 100% 29.79 in 7.0 mi SW 13.8 mph 17.3 mph N/A   Unknown
9:35 AM 47.3 °F - 47.3 °F 100% 29.79 in 3.0 mi SW 10.4 mph - N/A   Mist
9:55 AM 47.7 °F - 47.7 °F 100% 29.80 in 5.0 mi SW 15.0 mph 18.4 mph N/A   Mist
10:15 AM 47.8 °F - 47.8 °F 100% 29.81 in 7.0 mi WSW 10.4 mph - N/A   Unknown
10:35 AM 47.8 °F - 47.8 °F 100% 29.80 in 4.0 mi WSW 10.4 mph - N/A   Mist
10:55 AM 48.2 °F - 48.2 °F 100% 29.79 in 3.0 mi SW 9.2 mph - N/A   Mist
11:15 AM 48.4 °F - 48.4 °F 100% 29.78 in 1.5 mi SSW 9.2 mph - N/A   Mist
11:35 AM 48.9 °F - 48.9 °F 100% 29.77 in 2.0 mi SSW 12.7 mph - N/A   Mist
11:55 AM 48.7 °F - 48.7 °F 100% 29.77 in 3.0 mi SSW 13.8 mph 21.9 mph N/A   Mist
12:15 PM 49.1 °F - 49.1 °F 100% 29.76 in 4.0 mi SW 15.0 mph 20.7 mph N/A   Mist
12:35 PM 50.2 °F - 50.2 °F 100% 29.76 in 7.0 mi SSW 12.7 mph - N/A   Unknown
12:55 PM 50.2 °F - 50.2 °F 100% 29.75 in 7.0 mi SSW 15.0 mph - N/A   Unknown
1:15 PM 50.4 °F - 50.4 °F 100% 29.75 in 7.0 mi SSW 11.5 mph - N/A   Unknown
1:35 PM 51.1 °F - 50.9 °F 99% 29.76 in 10.0 mi SSW 10.4 mph - N/A   Unknown
1:55 PM 51.8 °F - 50.7 °F 96% 29.76 in 10.0 mi South 9.2 mph - N/A   Unknown
2:15 PM 52.3 °F - 51.3 °F 96% 29.75 in 10.0 mi SSW 12.7 mph - N/A   Unknown
2:35 PM 52.7 °F - 50.9 °F 94% 29.76 in 10.0 mi SSW 15.0 mph 20.7 mph N/A   Unknown
2:55 PM 52.5 °F - 50.9 °F 94% 29.75 in 10.0 mi South 13.8 mph 18.4 mph N/A   Unknown
3:15 PM 52.7 °F - 50.9 °F 94% 29.75 in 10.0 mi South 12.7 mph - N/A   Unknown
3:35 PM 52.0 °F - 50.9 °F 96% 29.74 in 10.0 mi SSE 12.7 mph 18.4 mph N/A   Unknown
3:55 PM 51.8 °F - 50.9 °F 97% 29.73 in 10.0 mi SSE 12.7 mph - N/A   Unknown
4:15 PM 51.8 °F - 50.9 °F 97% 29.73 in 10.0 mi South 12.7 mph - N/A   Unknown
4:35 PM 51.8 °F - 50.9 °F 97% 29.73 in 10.0 mi South 12.7 mph - N/A   Unknown
4:55 PM 51.4 °F - 50.9 °F 98% 29.73 in 10.0 mi South 11.5 mph - N/A   Unknown
5:15 PM 51.3 °F - 50.7 °F 98% 29.73 in 10.0 mi South 12.7 mph - N/A   Unknown
5:35 PM 51.4 °F - 50.4 °F 96% 29.73 in 10.0 mi South 16.1 mph - N/A   Unknown
5:55 PM 50.9 °F - 49.8 °F 96% 29.74 in 10.0 mi South 12.7 mph - N/A   Unknown
6:15 PM 50.4 °F - 49.5 °F 97% 29.74 in 10.0 mi South 13.8 mph - N/A   Unknown
6:35 PM 50.0 °F - 49.3 °F 97% 29.74 in 10.0 mi South 12.7 mph - N/A   Unknown
6:55 PM 49.8 °F - 49.1 °F 97% 29.74 in 10.0 mi South 11.5 mph - N/A   Unknown
7:15 PM 50.0 °F - 49.3 °F 97% 29.73 in 10.0 mi South 13.8 mph 18.4 mph N/A   Unknown
7:35 PM 49.6 °F - 49.1 °F 98% 29.73 in 10.0 mi South 13.8 mph - N/A   Unknown
7:55 PM 50.0 °F - 49.3 °F 97% 29.71 in 10.0 mi South 15.0 mph 19.6 mph N/A   Unknown
8:15 PM 50.5 °F - 49.3 °F 95% 29.72 in 10.0 mi South 16.1 mph 23.0 mph N/A   Unknown
8:35 PM 51.1 °F - 49.5 °F 94% 29.72 in 10.0 mi South 16.1 mph - N/A   Unknown
8:55 PM 51.4 °F - 49.6 °F 94% 29.71 in 10.0 mi South 18.4 mph 24.2 mph N/A   Unknown
9:15 PM 51.4 °F - 49.6 °F 94% 29.72 in 10.0 mi South 15.0 mph 20.7 mph N/A   Unknown
9:35 PM 51.8 °F - 49.8 °F 93% 29.71 in 10.0 mi SSW 18.4 mph 24.2 mph N/A   Unknown
9:55 PM 51.4 °F - 49.6 °F 94% 29.71 in 10.0 mi SSW 18.4 mph - N/A   Unknown
10:15 PM 51.3 °F - 49.5 °F 94% 29.72 in 10.0 mi SSW 18.4 mph 24.2 mph N/A   Unknown
10:35 PM 51.3 °F - 49.5 °F 94% 29.72 in 10.0 mi SSW 17.3 mph 23.0 mph N/A   Unknown
10:55 PM 51.6 °F - 49.6 °F 93% 29.73 in 10.0 mi SSW 16.1 mph 25.3 mph N/A   Unknown
11:15 PM 51.4 °F - 49.5 °F 93% 29.73 in 10.0 mi SSW 15.0 mph 24.2 mph N/A   Unknown
11:35 PM 51.3 °F - 49.5 °F 94% 29.73 in 10.0 mi South 15.0 mph 21.9 mph N/A   Unknown
11:55 PM 51.3 °F - 49.6 °F 94% 29.73 in 10.0 mi SSW 15.0 mph 21.9 mph N/A   Unknown